Regional Weather Roundup
Issued by NWS

Home | Current Version | Previous Version | Graphics & Text | Print | Product List | Glossary On
Versions: 1 2 3 4 5 6 7 8 9 10 11 12 13 14 15 16 17 18 19 20 21 22 23 24 25 26 27 28 29 30 31 32 33 34 35 36 37 38 39 40 41 42 43 44 45 46 47 48 49 50
000
ASUS43 KLOT 290008
RWRIL

ILLINOIS REGIONAL WEATHER ROUNDUP
NATIONAL WEATHER SERVICE CHICAGO/ROMEOVILLE IL
700 PM CDT THU MAY 28 2015

NOTE: "FAIR" INDICATES FEW OR NO CLOUDS BELOW 12,000 FEET WITH NO
SIGNIFICANT WEATHER AND/OR OBSTRUCTIONS TO VISIBILITY.

* THESE STATIONS ARE NOT UNDER NWS QUALITY CONTROL. THEY ALSO MAY NOT
  REPORT WEATHER SUCH AS PRECIPITATION OR FOG.

ILZ001-002-007-009-015-016-024-290100-
NORTHWEST ILLINOIS

CITY           SKY/WX    TMP DP  RH WIND       PRES   REMARKS
MOLINE         PTSUNNY   78  53  41 S7        30.04S
6HR MIN TEMP:  78; 6HR MAX TEMP:  83;

STERLING*      MOSUNNY   81  48  32 S6        30.06F HX  80
SAVANNA*       MOSUNNY   80  48  32 SE8       30.05S
$$

ILZ003-004-008-010-011-017-018-290100-
NORTH CENTRAL ILLINOIS

CITY           SKY/WX    TMP DP  RH WIND       PRES   REMARKS
ROCKFORD       MOSUNNY   80  51  36 SE13      30.09S HX  80
6HR MIN TEMP:  80; 6HR MAX TEMP:  83;

FREEPORT*      SUNNY     79  49  35 S17       30.09S
ROCHELLE*      SUNNY     81  49  32 SE12      30.08S HX  80
DE KALB*       SUNNY     76  50  39 SE10      30.10S
PERU*          MOSUNNY   82  44  26 SE12      30.07S HX  80
$$

ILZ005-006-012>014-019>023-290100-
NORTHEAST ILLINOIS

CITY           SKY/WX    TMP DP  RH WIND       PRES   REMARKS
CHICAGO-OHARE  MOSUNNY   79  52  38 E10       30.10S
6HR MIN TEMP:  79; 6HR MAX TEMP:  82;

CHICAGO-MIDWAY PTSUNNY   78  54  43 E13       30.11R
6HR MIN TEMP:  78; 6HR MAX TEMP:  84;

AURORA         SUNNY     81  50  33 SE13      30.09S HX  80
6HR MIN TEMP:  80; 6HR MAX TEMP:  84;

LANSING*       MOSUNNY   79  49  34 SE8       30.11R
JOLIET*        MOSUNNY   80  56  43 SE5       30.09S HX  80
WAUKEGAN       SUNNY     68  55  63 E6        30.11F
6HR MIN TEMP:  68; 6HR MAX TEMP:  75;

DUPAGE AIRPORT SUNNY     80  53  39 E10       30.09S HX  80
6HR MIN TEMP:  78; 6HR MAX TEMP:  83;

KANKAKEE*      MOSUNNY   80  56  43 SE6       30.09S HX  80
WHEELING       SUNNY     77  52  41 E8        30.12S
6HR MIN TEMP:  77; 6HR MAX TEMP:  81;

MORRIS*        MOSUNNY   81  53  38 SE10      30.07S HX  80
ROMEOVILLE*    SUNNY     79  52  39 SE8       30.09S
NORTHERLY ISL    N/A     67  55  65 N2          N/A
$$

LMZ740>746-290100-
SOUTHERN LAKE MICHIGAN

STATION/POSITION SKY/WX   TEMP    WIND        PRES    VSBY  WAVE
                          AIR SEA DIR/SP/G                  HT/PER
                          (F)     (DEG/KT/KT) (MB)    (MI)  (FT/S)
SOUTHERN BUOY              60 39   60/  6/  6 1020.6F
HARRISON CRIB              63      60/ 13/ 14   N/A
BURNHAM HARBOR             67     350/  2/  6   N/A
CALUMET HARBOR             64      40/  5/  8   N/A
BURNS HARBOR               64      60/ 10/ 12 1020.3F
MICHIGAN CITY              63      30/ 13/ 14   N/A
MICHIGAN CITY 6N           60 56   70/  6/  8   N/A           1
ST. JOSEPH                 61 58   50/  6/  8   N/A           1
$$

ILZ025>027-034>036-040-047-049-050-058-095>099-290100-
WEST-CENTRAL ILLINOIS

CITY           SKY/WX    TMP DP  RH WIND       PRES   REMARKS
QUINCY         CLOUDY    73  65  75 E3        30.04F
GALESBURG*     CLOUDY    77  56  47 S6        30.06S
MACOMB*        CLOUDY    78  60  54 S3        30.07F
JACKSONVILLE*  CLOUDY    75  69  81 CALM      30.05F
PITTSFIELD*    CLOUDY    70  65  85 CALM      30.06S
$$

ILZ028>032-037-038-041>044-048-051>054-059>061-290100-
CENTRAL ILLINOIS

CITY           SKY/WX    TMP DP  RH WIND       PRES   REMARKS
PONTIAC        MOSUNNY   83  49  30 SE6       30.08S HX  81
BLOOMINGTON    PTSUNNY   79  60  51 S7        30.08S HX  80
DECATUR        PTSUNNY   80  63  55 S9        30.07S HX  81
PEORIA         CLOUDY    80  58  46 S5        30.05F HX  80
6HR MIN TEMP:  80; 6HR MAX TEMP:  85;

LACON*         PTSUNNY   78  56  45 S6        30.05S
LINCOLN*       CLOUDY    82  59  44 CALM      30.03S HX  82
SPRINGFIELD    CLOUDY    73  68  84 NW5       30.07S
6HR MIN TEMP:  69; 6HR MAX TEMP:  86; 6HR PCP:  0.48;

TAYLORVILLE    CLOUDY    79  64  61 SE6       30.07R HX  81
$$

ILZ033-039-045-046-055>057-062-063-290100-
EAST-CENTRAL ILLINOIS

CITY           SKY/WX    TMP DP  RH WIND       PRES   REMARKS
CHAMPAIGN      MOSUNNY   83  58  42 SE13      30.07S HX  83
DANVILLE*      CLOUDY    82  56  40 SE8       30.06S HX  81
RANTOUL*       MOSUNNY   85  55  36 S7        30.07S HX  83
PARIS*         MOSUNNY   82  61  49 S8        30.09S HX  83
$$

ILZ079-100>102-290100-
SOUTHWEST ILLINOIS

CITY           SKY/WX    TMP DP  RH WIND       PRES   REMARKS
BELLEVILLE     PTSUNNY   81  68  64 SE8       30.04S HX  83
CAHOKIA*       MOSUNNY   82  64  54 S12       30.04S HX  83
SPARTA*        MOSUNNY   79  65  62 S7        30.07S HX  81
$$

ILZ064>066-069>071-074>076-080>082-084>086-088>090-092>094-290100-
SOUTH-CENTRAL ILLINOIS

CITY           SKY/WX    TMP DP  RH WIND       PRES   REMARKS
CARBONDALE     PTSUNNY   80  65  59 S9        30.07S HX  82
6HR MIN TEMP:  80; 6HR MAX TEMP:  84;

CAIRO*         PTSUNNY   81  68  64 SW7       30.07F HX  83
EFFINGHAM*     PTSUNNY   78  64  60 CALM      30.09S HX  80
MARION         PTSUNNY   81  68  65 S7        30.08S HX  83
MT. VERNON     MOSUNNY   82  64  54 S10       30.08R HX  84
CENTRALIA*     PTSUNNY   80  64  57 S6        30.07S HX  82
SALEM*         PTSUNNY   83  63  50 S5        30.08R HX  84
METROPOLIS*    PTSUNNY   81  67  60 CALM      30.07S HX  84
$$

ILZ067-068-072-073-078-083-087-091-290100-
SOUTHEAST ILLINOIS

CITY           SKY/WX    TMP DP  RH WIND       PRES   REMARKS
LAWRENCEVILLE  MOSUNNY   80  65  59 SE9       30.09R HX  82
FLORA*         MOSUNNY   80  64  59 S6        30.07S HX  81
FAIRFIELD*     MOSUNNY   82  64  55 S6        30.06S HX  83
HARRISBURG*    MOSUNNY   81  64  55 S6        30.09R HX  82
ROBINSON*      MOSUNNY   82  61  48 SE8       30.09S HX  83
CARMI*         MOSUNNY   82  55  39 SE8       30.07S HX  82
$$

ABBREVIATIONS USED IN REMARKS
   TC - TEMPERATURE IN CELSIUS
  WCI - WIND CHILL INDEX
   HX - HEAT INDEX
  VSB - VISIBILITY
$$



USA.gov is the U.S. government's official web portal to all federal, state and local government web resources and services.